Dewpoint
18 16 15 14 19 17 14 12 11 9 8 8 6 12 13 22 12 12 21 35 29 26 25 27 28 27 31 31 44 47 49 56 55 47 45 47 47 47 48 50 52 54 55 57 58 59 60 60 61 62 64 64 65 65 65 66 67 68 70 70 71 71 71 71 71 71 71 71 71 72 72 72 72 71 71 71 71 70 70 69 69 69 69 68 68 67 67
26 16 16 15 13 17 19 14 12 11 8 7 7 8 12 15 21 20 29 38 30 33 25 23 24 27 29 38 41 48 55 54 55 51 47 45 46 46 48 50 52 54 55 57 58 59 60 60 61 61 63 64 65 65 65 65 66 68 69 70 71 71 71 71 71 71 72 72 71 71 71 71 72 71 71 71 71 70 70 69 69 69 68 68 68 67 67
29 19 17 16 15 14 15 17 14 12 10 8 8 8 10 19 15 22 22 27 27 32 37 33 32 33 42 44 41 47 54 55 54 51 50 49 49 49 50 51 52 53 55 57 58 59 60 61 61 62 63 63 64 64 65 65 66 67 69 70 70 71 71 71 71 71 71 71 71 71 71 71 71 71 71 71 71 70 70 69 69 69 69 68 68 67 67
30 25 16 16 17 16 16 18 18 14 12 12 11 12 12 17 22 25 23 26 23 30 35 39 27 38 43 37 39 47 52 55 55 51 50 50 51 53 53 54 54 55 56 58 59 59 60 61 62 62 63 63 64 64 64 65 65 66 68 69 69 70 71 71 71 71 71 71 71 71 71 71 71 71 71 71 70 70 70 69 69 69 68 69 68 68 67
30 30 28 16 15 16 16 17 17 18 15 14 13 15 21 19 22 22 20 19 26 25 34 34 30 22 36 36 42 44 47 54 54 51 51 51 52 54 56 56 57 56 57 58 60 60 60 61 62 63 64 63 64 64 65 65 65 65 66 67 69 70 70 71 71 71 71 71 71 71 71 71 71 71 71 71 70 69 69 69 69 69 69 69 69 68 67
29 30 31 26 17 14 15 19 16 18 16 17 15 14 15 17 17 19 21 21 32 31 32 33 31 26 31 42 44 46 48 52 54 53 52 51 52 53 55 56 56 56 58 59 60 60 61 61 62 63 64 64 64 64 64 65 65 65 66 66 68 69 70 70 71 71 71 71 71 71 71 71 71 71 71 70 70 69 69 69 69 69 69 69 69 69 68
31 31 31 27 16 15 22 23 20 17 17 20 19 35 34 31 28 33 36 38 38 38 32 32 34 39 43 50 51 52 49 43 46 53 53 52 53 53 55 56 56 57 57 58 59 61 61 61 62 63 64 64 64 64 64 65 65 65 65 66 67 68 69 70 71 71 71 71 71 71 71 71 71 71 71 70 70 69 68 68 68 68 69 69 69 69 68
34 32 30 24 18 32 40 23 22 27 20 22 26 39 45 49 46 46 43 42 45 45 43 40 40 38 44 50 55 57 57 50 42 38 43 45 48 52 54 56 56 57 57 58 59 60 62 63 63 63 63 64 64 64 64 65 65 65 65 66 66 67 68 69 70 70 71 70 70 71 71 71 71 71 71 71 70 69 69 69 69 69 69 69 69 69 69
31 32 30 28 36 32 33 29 30 25 23 23 22 39 45 50 52 48 45 47 47 49 48 49 47 43 44 48 53 58 60 58 52 42 39 38 40 46 53 55 55 56 56 57 58 61 62 62 63 63 63 64 64 64 64 65 65 65 65 65 66 67 68 68 69 70 70 70 70 70 71 71 71 71 71 71 70 70 69 70 70 69 69 69 69 69 69
38 31 30 36 26 24 31 38 36 41 37 27 35 45 46 52 54 55 52 50 51 50 51 51 51 47 39 50 53 58 61 61 58 54 50 48 41 46 49 53 55 56 56 56 58 58 59 61 62 63 63 64 65 65 65 65 65 65 65 65 65 66 67 68 69 69 70 70 70 70 70 70 71 71 71 71 70 70 70 70 69 69 69 69 69 69 68
37 34 30 31 29 32 39 43 42 40 42 45 47 47 46 51 57 58 57 57 57 55 53 53 51 42 46 50 55 60 62 62 63 63 59 55 54 52 43 48 53 57 59 57 56 58 59 60 62 63 63 64 65 65 65 65 65 65 65 64 65 65 66 67 68 69 70 70 70 70 70 71 71 71 70 71 71 71 70 70 70 69 69 68 68 68 68
39 35 36 32 40 44 45 48 50 49 46 37 37 38 43 51 58 59 58 58 58 58 57 57 57 53 52 54 58 62 63 64 65 65 65 64 61 60 62 66 65 55 61 64 63 61 62 62 63 64 64 64 64 65 65 65 64 64 65 65 65 65 65 66 68 69 69 70 70 70 70 71 71 71 71 71 71 71 70 70 70 69 68 68 67 67 67
41 37 36 42 43 48 48 50 51 50 49 36 28 29 42 56 58 59 58 58 58 57 57 56 57 58 59 60 62 64 64 64 64 65 66 66 65 64 65 66 70 65 58 62 64 64 65 66 66 64 64 63 63 64 64 64 64 64 64 65 65 65 65 65 67 68 69 69 70 70 71 71 71 71 71 71 71 71 70 70 69 69 68 68 67 66 66
39 40 39 40 42 49 50 52 52 50 43 28 32 49 58 59 58 59 59 59 60 61 61 61 61 62 63 64 64 64 64 65 64 65 65 64 64 64 66 68 68 68 68 66 67 68 68 69 70 70 69 65 63 63 63 64 64 64 64 65 65 65 65 65 65 67 68 69 69 71 71 71 71 71 72 72 71 70 70 70 69 69 68 68 67 66 66
45 42 40 35 31 45 50 52 51 53 45 46 57 59 59 60 59 59 59 60 61 61 61 61 61 61 61 61 62 63 64 65 65 65 65 64 64 64 64 65 66 67 66 67 67 68 69 69 69 70 69 68 68 68 67 67 67 66 66 65 64 64 65 65 65 66 67 68 69 71 72 72 72 72 72 71 71 70 69 69 69 68 67 67 66 65 65
41 41 37 38 45 50 52 52 50 54 56 57 59 58 58 59 59 58 58 59 60 60 60 59 59 59 60 60 61 62 63 64 64 65 65 65 65 65 64 64 65 66 66 67 68 68 69 69 69 69 69 68 68 69 69 71 72 70 69 67 64 65 65 66 67 67 67 69 70 72 72 72 72 72 72 71 70 69 68 68 67 66 66 67 66 65 65
46 44 48 52 52 54 55 54 54 55 55 56 58 58 57 56 57 57 57 58 58 59 59 58 58 58 59 59 60 61 61 62 63 64 65 66 66 66 65 65 65 65 65 66 68 69 69 69 68 68 68 68 68 68 68 70 72 72 72 71 70 70 71 71 71 72 72 72 73 73 73 73 72 72 70 69 68 68 68 68 67 66 66 66 65 65 65
54 54 53 54 55 55 55 56 57 55 54 54 54 55 55 56 57 57 56 57 57 57 57 57 57 57 57 58 58 59 59 60 61 62 64 65 66 65 66 65 65 64 65 66 68 68 69 69 68 68 69 69 68 68 69 69 70 71 71 71 71 71 71 72 72 71 71 71 71 71 71 70 70 69 68 68 68 67 67 67 67 66 66 66 65 64 64
42 39 53 54 54 53 54 54 54 54 54 51 51 54 55 55 55 55 55 55 55 56 56 56 56 56 57 56 57 57 58 58 59 60 61 63 63 64 64 65 65 65 65 66 67 68 67 68 68 68 67 68 68 68 68 68 68 68 68 70 70 70 70 70 70 70 70 70 70 69 69 69 69 68 68 67 66 66 67 68 67 66 65 64 64 64 64
47 48 52 54 55 53 52 53 54 54 54 52 49 49 51 51 52 52 53 54 54 54 54 54 54 54 55 55 55 56 57 57 58 60 61 62 62 64 64 64 65 66 66 67 67 67 67 67 68 67 68 68 68 68 68 69 69 69 69 69 69 70 70 70 70 70 70 70 69 68 68 67 67 67 67 66 66 67 67 66 65 65 64 64 63 63 64
51 53 53 52 54 52 51 52 54 55 55 52 49 49 49 51 51 51 51 52 53 53 53 54 53 53 54 55 55 55 56 57 58 60 62 63 63 64 65 64 65 66 66 67 67 68 67 68 67 67 67 67 68 68 68 69 69 68 68 68 68 68 68 69 69 69 69 68 68 67 66 66 65 65 67 67 66 64 60 65 66 64 63 63 63 64 64
46 48 50 52 49 49 51 52 54 55 56 56 52 50 50 51 50 50 50 51 52 53 53 54 54 53 54 54 55 55 55 56 57 60 62 63 63 64 65 66 66 66 67 67 67 67 67 66 66 67 67 67 67 68 68 68 68 68 68 68 68 68 68 68 68 68 68 67 66 64 61 58 55 52 49 46 54 62 60 59 59 57 57 63 64 63 63
45 51 52 53 54 54 53 54 55 56 56 57 55 53 51 50 50 50 50 51 51 52 53 54 54 54 54 54 55 55 55 56 57 58 59 61 62 63 64 65 65 66 66 68 67 67 67 66 65 66 66 66 67 67 67 67 67 67 67 68 68 68 67 67 66 66 65 63 63 62 60 59 57 57 55 52 43 44 48 49 47 50 53 54 55 57 63
52 53 54 56 55 53 54 55 55 56 56 57 56 55 54 52 51 51 52 52 52 52 52 53 54 54 54 55 55 55 55 56 58 59 59 60 61 63 64 64 64 65 65 66 66 66 67 68 66 65 66 66 65 66 67 67 66 67 67 67 67 67 67 66 65 65 64 63 62 60 60 60 59 60 60 58 54 45 42 45 44 43 43 47 50 52 54
50 55 56 56 56 55 55 56 56 57 58 56 56 56 55 53 52 52 52 53 54 53 52 52 53 54 54 55 55 55 56 57 58 60 60 60 61 62 64 64 64 64 65 66 65 65 65 65 66 67 66 66 66 65 66 67 67 67 67 67 67 67 67 66 66 65 64 63 62 61 60 60 60 61 60 58 56 53 50 43 41 41 41 41 44 49 50
54 54 55 57 57 55 55 55 54 55 56 56 55 56 55 57 55 53 52 53 54 54 54 53 53 54 54 54 56 57 57 57 59 59 57 58 59 60 62 64 64 65 65 65 65 65 65 64 65 69 68 68 67 67 67 67 67 67 68 68 67 67 67 66 65 64 64 63 62 62 61 61 60 59 58 57 56 55 54 54 54 49 45 41 41 44 47
55 56 56 55 54 55 56 53 51 55 56 56 55 55 55 54 55 54 53 53 53 54 55 56 56 56 56 55 56 57 58 58 57 57 56 56 56 58 61 63 63 64 65 65 66 66 65 65 66 67 68 69 69 69 69 69 68 69 69 69 69 69 68 67 65 64 63 63 63 62 61 59 59 58 57 57 57 58 58 57 56 55 53 51 45 40 46
55 56 57 53 51 52 53 54 54 54 55 55 54 55 55 54 52 52 52 52 53 53 54 55 56 56 56 56 56 55 56 56 57 57 57 57 56 56 58 62 63 64 64 64 64 66 67 66 66 66 67 67 68 67 67 68 68 69 69 69 69 69 68 67 66 65 65 63 62 61 60 59 58 57 57 57 58 57 56 57 56 54 52 49 48 47 43
54 54 55 55 54 54 54 54 54 53 53 54 55 54 54 53 52 52 52 52 53 53 53 53 55 56 56 56 56 56 56 56 56 57 57 58 58 56 56 59 61 63 63 64 64 64 64 65 66 65 65 66 67 67 67 67 67 69 69 69 69 68 68 67 66 65 64 64 63 61 60 59 58 57 58 58 58 58 57 57 56 54 51 50 51 52 50
55 55 54 54 54 53 52 53 53 53 53 53 53 53 54 53 52 52 52 52 53 53 53 54 54 54 55 57 57 56 56 56 56 56 57 58 58 58 56 57 60 61 63 63 63 64 64 65 64 64 65 67 67 66 67 67 67 68 68 68 68 67 66 66 66 65 64 63 62 61 62 61 60 60 60 58 59 58 58 57 55 54 52 52 54 53 52
53 54 54 53 53 52 53 53 53 54 54 54 54 53 53 53 53 53 53 53 54 53 53 53 54 54 55 55 56 57 57 57 56 55 54 55 57 58 58 59 61 61 62 63 63 64 64 64 64 64 65 66 67 66 66 66 66 67 67 67 66 63 62 63 63 65 64 63 62 62 62 62 61 61 61 60 60 59 57 56 55 53 53 53 54 53 51
53 53 54 54 54 54 53 53 53 53 54 55 54 53 54 54 53 53 54 54 54 54 54 54 54 54 55 55 56 57 58 58 58 57 56 54 54 58 60 60 62 64 62 63 63 64 63 62 62 64 65 65 65 65 66 66 65 64 64 66 65 65 63 62 63 63 64 63 63 62 62 62 61 61 60 59 60 59 58 56 54 53 53 54 54 53 51
51 50 51 52 53 52 52 52 53 53 54 54 54 55 55 55 55 55 55 55 55 55 55 55 55 56 56 56 57 58 59 60 60 60 60 58 57 59 62 62 62 62 63 63 63 64 64 64 64 64 64 64 64 65 65 65 64 63 63 64 64 64 65 62 62 64 65 63 63 63 63 62 62 61 60 60 59 59 56 55 55 54 54 54 54 53 51
52 51 52 53 53 52 52 53 54 54 54 55 55 54 54 54 54 54 54 56 55 55 55 56 56 55 56 57 58 59 59 59 60 60 60 61 61 61 62 62 62 62 63 64 64 64 64 64 63 64 64 64 65 64 64 64 64 63 63 63 63 62 63 62 62 63 63 62 63 64 63 63 62 61 61 60 59 58 57 56 56 55 54 54 54 53 49
54 54 55 55 55 56 56 55 54 54 54 54 53 54 54 54 53 54 56 55 53 54 54 54 55 55 56 57 58 58 59 59 59 59 60 60 60 61 61 61 61 62 62 63 64 65 65 64 64 64 64 63 62 61 62 63 63 63 63 62 62 62 63 63 62 61 62 62 62 61 61 61 61 63 62 60 59 58 58 57 56 55 55 55 54 53 51
54 54 54 55 55 56 56 56 56 56 55 55 55 55 54 55 54 53 53 54 54 54 54 54 55 55 56 57 57 58 58 59 59 58 58 58 59 59 60 60 61 61 61 61 62 63 64 65 66 66 64 65 63 62 62 62 62 62 62 61 61 61 61 62 61 62 61 61 61 60 60 62 61 61 61 60 59 59 58 57 56 56 56 55 54 52 51
55 54 54 54 55 55 55 56 56 56 56 56 56 55 55 53 54 54 55 55 55 55 55 55 56 55 56 56 57 58 58 58 58 58 58 58 58 58 58 59 59 60 61 60 61 63 63 64 64 64 63 63 63 63 64 64 61 61 61 61 61 61 61 61 61 61 61 61 60 59 61 60 60 60 61 59 59 58 58 57 58 57 56 56 54 53 51
54 54 54 54 55 55 55 55 56 56 56 56 56 57 56 54 54 55 55 55 55 56 56 56 56 56 57 57 57 57 57 58 58 57 57 57 58 58 58 58 59 60 60 60 62 62 62 63 63 62 61 62 61 61 62 63 63 60 61 61 61 61 61 60 60 60 60 61 60 59 58 58 58 59 59 58 58 58 58 58 59 58 57 56 54 53 52
54 55 55 55 55 54 54 55 55 55 56 53 54 54 56 55 55 55 54 54 55 56 55 55 56 56 56 56 56 56 56 57 57 56 56 57 58 57 57 58 59 59 60 61 62 62 62 61 61 60 60 60 61 61 62 63 63 59 58 58 59 60 60 61 60 59 59 59 59 59 58 57 57 57 57 57 57 58 60 59 59 58 56 55 54 53 52
54 54 54 55 54 55 55 55 55 54 52 52 52 53 55 56 56 53 53 54 55 56 55 55 55 55 55 55 55 55 55 56 56 56 56 56 56 56 56 56 57 57 58 59 58 59 61 62 60 59 59 59 60 61 63 62 62 60 59 58 58 58 58 59 59 58 59 59 59 60 57 56 57 56 56 56 57 58 58 59 58 57 57 55 54 53 53
54 54 54 54 54 54 53 53 51 52 52 53 52 54 52 53 53 53 53 54 55 55 55 55 54 55 55 55 55 54 54 55 55 55 56 55 54 54 54 54 56 56 55 56 56 57 57 59 60 59 59 60 61 63 61 62 60 59 59 59 59 58 58 58 58 56 56 57 57 56 56 55 55 55 55 55 56 57 57 58 57 57 57 56 55 54 53
54 55 55 54 54 54 52 50 50 49 50 50 51 50 50 51 52 53 54 54 54 54 55 56 57 54 54 54 54 54 54 53 52 52 54 55 54 53 53 53 55 56 56 55 55 54 53 53 56 61 58 59 61 62 62 62 60 60 60 60 60 60 60 59 59 58 58 57 57 58 56 55 54 54 55 55 55 56 56 56 56 56 56 56 55 55 54
54 54 53 52 51 50 50 51 51 50 51 52 52 52 52 52 52 51 52 53 53 53 53 53 55 55 54 53 53 53 53 53 52 51 50 50 52 54 54 54 56 55 56 57 54 50 51 53 55 57 59 57 57 59 62 59 58 58 59 60 61 60 60 59 59 59 59 59 59 58 56 55 55 55 54 54 54 54 55 55 55 56 56 56 55 55 55
53 52 51 51 50 50 49 49 49 49 50 51 53 53 52 51 53 53 53 53 53 53 51 51 52 53 54 53 52 52 53 52 51 50 48 48 48 48 51 56 56 58 57 56 54 53 52 53 56 58 59 59 59 57 52 52 56 58 58 58 59 60 59 59 58 57 57 58 58 58 57 56 55 54 54 54 53 53 54 53 54 54 54 55 55 55 54
49 48 49 49 49 49 47 46 46 46 46 47 47 47 47 47 48 49 49 49 49 49 50 48 48 49 49 49 48 47 48 50 52 52 50 50 50 49 52 59 55 58 58 58 53 53 54 55 58 60 60 58 58 56 49 50 49 52 54 57 56 56 57 57 56 56 56 56 57 57 57 56 56 54 53 54 55 56 55 55 52 53 54 53 52 52 51
46 46 46 51 47 46 46 45 45 45 45 46 45 46 46 45 45 47 48 48 48 47 47 47 47 47 46 45 46 45 44 45 46 47 48 50 51 51 54 57 56 60 56 58 53 53 54 58 59 59 59 59 57 51 50 51 51 49 49 49 51 54 50 49 51 53 54 55 55 55 56 55 53 52 52 53 53 54 54 54 53 52 50 49 49 48 47
41 41 41 42 44 45 46 46 46 45 44 44 45 46 48 46 46 45 45 45 45 45 46 47 47 47 48 48 48 45 43 44 45 47 47 47 50 52 55 56 57 58 57 56 57 57 57 56 59 59 58 58 57 50 50 50 50 50 49 49 50 49 50 49 48 47 48 53 55 56 56 54 52 52 52 53 52 52 51 51 50 49 48 47 47 47 46
40 39 39 39 40 41 42 43 43 44 45 45 45 46 46 46 46 46 45 45 44 44 44 44 45 46 46 46 47 48 48 46 45 46 47 47 47 49 50 51 52 54 53 53 54 57 59 60 59 58 57 57 53 51 50 50 51 51 50 50 49 49 49 48 47 46 47 47 49 50 49 48 49 49 48 47 47 47 46 46 46 46 46 45 45 44 44
39 39 38 39 39 39 40 40 41 43 42 45 46 44 45 44 44 46 47 46 45 44 44 44 44 44 46 49 47 45 47 48 47 47 48 48 46 46 48 52 54 52 50 46 45 47 52 53 55 55 56 56 52 52 52 52 53 53 52 51 51 50 49 49 48 48 48 48 48 48 47 48 50 50 48 48 48 47 47 46 46 45 44 44 44 45 44
38 38 38 38 38 38 39 38 39 39 41 43 42 42 41 40 39 41 46 47 47 47 44 43 43 43 43 43 43 43 43 44 44 43 44 45 46 46 46 47 49 51 50 46 45 44 49 50 51 51 51 49 51 52 53 52 53 53 53 53 52 51 51 50 50 50 50 50 48 47 47 48 50 52 53 50 47 47 45 45 45 47 48 48 47 46 46
37 38 38 40 39 40 39 40 40 41 40 41 41 42 42 40 41 44 44 48 45 45 43 43 43 42 42 42 42 42 42 42 44 47 41 41 41 46 47 47 46 48 47 45 44 42 41 43 45 47 45 45 44 47 50 52 52 53 54 53 53 53 53 52 52 52 52 52 50 50 50 49 49 48 47 47 49 48 46 46 45 45 45 45 47 47 46
37 38 38 38 38 38 38 38 39 39 41 42 40 40 39 39 39 41 43 50 46 44 44 43 43 43 42 41 42 41 43 43 43 42 45 42 40 37 41 44 42 43 42 41 41 43 42 43 47 49 48 42 41 42 47 49 50 51 52 53 54 53 54 54 54 53 53 53 52 52 52 52 52 51 51 50 50 50 49 47 47 47 47 46 45 46 45